Weather History for KLSB - November, 2012

Change the Weather History Date:

Saturday, November 3, 2012

  Actual Average Record
Temperature  
Mean Temperature 59 °F -  
Max Temperature 77 °F 70 °F 71 °F (2013)
Min Temperature 41 °F 33 °F 44 °F (2014)
Degree Days  
Heating Degree Days 6    
Growing Degree Days 9 (Base 50)    
Moisture  
Dew Point 29 °F    
Average Humidity 35    
Maximum Humidity 65    
Minimum Humidity 17    
Precipitation  
Precipitation 0.00 in - - ()
Sea Level Pressure  
Sea Level Pressure 30.11 in    
Wind  
Wind Speed 2 mph ()    
Max Wind Speed 9 mph    
Max Gust Speed -    
Visibility 10.0 miles    
Events      
Averages and records for this station are not official NWS values.
T = Trace of Precipitation, MM = Missing Value Source: Averaged Metar Reports

Daily Weather History Graph

Daily Weather History Graph

Search for Another Location

Airport or City:

Trip Planner

Search our weather history database for the weather conditions in past years. The results will help you decide how hot, cold, wet, or windy it might be!

Date:

Astronomy

Nov. 03, 2012 Rise Set
Actual Time 7:34 AM MDT 6:22 PM MDT
Civil Twilight 7:08 AM MDT 6:47 PM MDT
Nautical Twilight 6:39 AM MDT 7:16 PM MDT
Astronomical Twilight 6:10 AM MDT 7:45 PM MDT
Moon 10:11 PM MDT (11/3) 11:34 AM MDT (11/3)
Length of Visible Light 11h 39m
Length of Day
10h 48m
Waning Gibbous, 80% of the Moon is Illuminated
Nov 3
Waning Gibbous
Nov 6
Last Quarter
Nov 13
New
Nov 20
First Quarter
Nov 28
Full

Hourly Weather History & Observations

Time (MDT) Temp. Windchill Dew Point Humidity Pressure Visibility Wind Dir Wind Speed Gust Speed Precip Events Conditions
12:15 AM 53.6 °F - 28.4 °F 38% 30.06 in 10.0 mi Calm Calm - N/A   Scattered Clouds
12:35 AM 50.0 °F - 26.6 °F 40% 30.06 in 10.0 mi Calm Calm - N/A   Clear
1:15 AM 50.0 °F - 26.6 °F 40% 30.06 in 10.0 mi Calm Calm - N/A   Scattered Clouds
1:35 AM 50.0 °F - 28.4 °F 43% 30.06 in 10.0 mi Calm Calm - N/A   Clear
1:55 AM 51.8 °F - 28.4 °F 41% 30.06 in 10.0 mi Calm Calm - N/A   Clear
2:15 AM 51.8 °F - 28.4 °F 41% 30.07 in 10.0 mi Calm Calm - N/A   Clear
2:35 AM 51.8 °F - 30.2 °F 44% 30.07 in 10.0 mi Calm Calm - N/A   Clear
2:55 AM 51.8 °F - 32.0 °F 47% 30.08 in 10.0 mi South 3.5 mph - N/A   Clear
3:15 AM 51.8 °F - 32.0 °F 47% 30.07 in 10.0 mi SSE 4.6 mph - N/A   Clear
3:35 AM 51.8 °F - 32.0 °F 47% 30.08 in 10.0 mi SSW 4.6 mph - N/A   Clear
3:55 AM 51.8 °F - 32.0 °F 47% 30.08 in 10.0 mi South 3.5 mph - N/A   Clear
4:15 AM 51.8 °F - 33.8 °F 50% 30.08 in 10.0 mi SSW 3.5 mph - N/A   Clear
4:35 AM 48.2 °F - 32.0 °F 54% 30.09 in 10.0 mi North 3.5 mph - N/A   Clear
4:55 AM 46.4 °F - 32.0 °F 57% 30.10 in 10.0 mi Calm Calm - N/A   Clear
5:15 AM 46.4 °F - 32.0 °F 57% 30.10 in 10.0 mi Calm Calm - N/A   Clear
5:35 AM 46.4 °F 45.2 °F 32.0 °F 57% 30.10 in 10.0 mi SW 3.5 mph - N/A   Clear
5:55 AM 46.4 °F 45.2 °F 32.0 °F 57% 30.10 in 10.0 mi SSW 3.5 mph - N/A   Clear
6:15 AM 44.6 °F - 32.0 °F 61% 30.11 in 10.0 mi Calm Calm - N/A   Clear
6:35 AM 44.6 °F - 32.0 °F 61% 30.11 in 10.0 mi Calm Calm - N/A   Clear
6:55 AM 42.8 °F - 30.2 °F 61% 30.12 in 10.0 mi Calm Calm - N/A   Clear
7:15 AM 41.0 °F - 30.2 °F 65% 30.13 in 10.0 mi Calm Calm - N/A   Clear
7:35 AM 42.8 °F - 30.2 °F 61% 30.13 in 10.0 mi Calm Calm - N/A   Clear
7:55 AM 41.0 °F - 30.2 °F 65% 30.14 in 10.0 mi Calm Calm - N/A   Clear
8:15 AM 46.4 °F - 32.0 °F 57% 30.14 in 10.0 mi Calm Calm - N/A   Clear
8:35 AM 50.0 °F - 32.0 °F 50% 30.15 in 10.0 mi Calm Calm - N/A   Clear
9:15 AM 53.6 °F - 35.6 °F 51% 30.16 in 10.0 mi WNW 3.5 mph - N/A   Clear
9:35 AM 55.4 °F - 33.8 °F 44% 30.16 in 10.0 mi Calm Calm - N/A   Clear
9:55 AM 59.0 °F - 33.8 °F 39% 30.16 in 10.0 mi Calm Calm - N/A   Clear
10:15 AM 60.8 °F - 32.0 °F 34% 30.16 in 10.0 mi NNW 3.5 mph - N/A   Clear
10:35 AM 64.4 °F - 32.0 °F 30% 30.16 in 10.0 mi NW 4.6 mph - N/A   Clear
10:55 AM 68.0 °F - 32.0 °F 26% 30.16 in 10.0 mi WNW 3.5 mph - N/A   Clear
11:15 AM 68.0 °F - 32.0 °F 26% 30.16 in 10.0 mi West 3.5 mph - N/A   Clear
11:35 AM 69.8 °F - 32.0 °F 25% 30.16 in 10.0 mi NW 8.1 mph - N/A   Clear
11:55 AM 71.6 °F - 32.0 °F 23% 30.16 in 10.0 mi NNW 8.1 mph - N/A   Clear
12:15 PM 71.6 °F - 32.0 °F 23% 30.15 in 10.0 mi WNW 6.9 mph - N/A   Clear
12:35 PM 73.4 °F - 32.0 °F 22% 30.15 in 10.0 mi WNW 9.2 mph - N/A   Clear
12:55 PM 73.4 °F - 32.0 °F 22% 30.14 in 10.0 mi NW 9.2 mph - N/A   Clear
1:15 PM 73.4 °F - 32.0 °F 22% 30.13 in 10.0 mi NW 6.9 mph - N/A   Clear
1:35 PM 73.4 °F - 32.0 °F 22% 30.12 in 10.0 mi WNW 6.9 mph - N/A   Clear
1:55 PM 75.2 °F - 30.2 °F 19% 30.11 in 10.0 mi WNW 8.1 mph - N/A   Clear
2:15 PM 75.2 °F - 30.2 °F 19% 30.10 in 10.0 mi WNW 9.2 mph - N/A   Clear
2:35 PM 73.4 °F - 30.2 °F 20% 30.10 in 10.0 mi NNW 4.6 mph - N/A   Clear
2:55 PM 77.0 °F - 30.2 °F 18% 30.10 in 10.0 mi West 9.2 mph - N/A   Clear
3:15 PM 77.0 °F - 30.2 °F 18% 30.09 in 10.0 mi West 6.9 mph - N/A   Clear
3:35 PM 77.0 °F - 28.4 °F 17% 30.09 in 10.0 mi WSW 8.1 mph - N/A   Clear
3:55 PM 77.0 °F - 28.4 °F 17% 30.09 in 10.0 mi West 5.8 mph - N/A   Clear
4:15 PM 75.2 °F - 30.2 °F 19% 30.10 in 10.0 mi Calm Calm - N/A   Clear
4:35 PM 75.2 °F - 30.2 °F 19% 30.10 in 10.0 mi West 8.1 mph - N/A   Clear
4:55 PM 75.2 °F - 30.2 °F 19% 30.09 in 10.0 mi WSW 4.6 mph - N/A   Clear
5:15 PM 75.2 °F - 30.2 °F 19% 30.09 in 10.0 mi WNW 6.9 mph - N/A   Clear
5:35 PM 73.4 °F - 30.2 °F 20% 30.10 in 10.0 mi WNW 6.9 mph - N/A   Clear
5:55 PM 73.4 °F - 28.4 °F 19% 30.10 in 10.0 mi WNW 6.9 mph - N/A   Clear
6:15 PM 71.6 °F - 28.4 °F 20% 30.10 in 10.0 mi West 4.6 mph - N/A   Clear
6:35 PM 68.0 °F - 28.4 °F 23% 30.10 in 10.0 mi West 3.5 mph - N/A   Clear
6:55 PM 64.4 °F - 26.6 °F 24% 30.10 in 10.0 mi West 3.5 mph - N/A   Clear
7:15 PM 62.6 °F - 26.6 °F 26% 30.11 in 10.0 mi West 5.8 mph - N/A   Clear
7:35 PM 62.6 °F - 26.6 °F 26% 30.11 in 10.0 mi West 5.8 mph - N/A   Clear
7:55 PM 60.8 °F - 26.6 °F 27% 30.11 in 10.0 mi West 4.6 mph - N/A   Clear
8:15 PM 60.8 °F - 24.8 °F 25% 30.12 in 10.0 mi Calm Calm - N/A   Clear
8:35 PM 57.2 °F - 23.0 °F 27% 30.12 in 10.0 mi Calm Calm - N/A   Clear
8:55 PM 55.4 °F - 23.0 °F 29% 30.12 in 10.0 mi Calm Calm - N/A   Clear
9:15 PM 53.6 °F - 23.0 °F 30% 30.13 in 10.0 mi NW 5.8 mph - N/A   Clear
9:35 PM 53.6 °F - 23.0 °F 30% 30.14 in 10.0 mi WNW 4.6 mph - N/A   Clear
9:55 PM 53.6 °F - 21.2 °F 28% 30.14 in 10.0 mi NNW 3.5 mph - N/A   Clear
10:15 PM 53.6 °F - 21.2 °F 28% 30.14 in 10.0 mi West 3.5 mph - N/A   Clear
10:35 PM 53.6 °F - 21.2 °F 28% 30.14 in 10.0 mi West 5.8 mph - N/A   Clear
10:55 PM 53.6 °F - 21.2 °F 28% 30.15 in 10.0 mi West 4.6 mph - N/A   Clear
11:15 PM 50.0 °F - 21.2 °F 32% 30.15 in 10.0 mi Calm Calm - N/A   Clear
11:35 PM 51.8 °F - 21.2 °F 30% 30.15 in 10.0 mi Calm Calm - N/A   Clear
11:55 PM 48.2 °F - 19.4 °F 32% 30.16 in 10.0 mi Calm Calm - N/A   Clear